This is the latest recevied weather packets stored in our database for station/object K4CRS-13. If no packets are shown the sender has not sent any weather packets the latest 1 day(s).
| Time | Temp. | Humidity | Pressure | Rain* | Wind** | Luminosity | Snow |
|---|---|---|---|---|---|---|---|
| 1778055589 | 20.56° C | 86% | 1044.9 hPa | 0 mm | 1.34 m/s, 176° | 0 W/m² | - |
| 1778055288 | 20.56° C | 85% | 1045.1 hPa | 0 mm | 0.89 m/s, 178° | 0 W/m² | - |
| 1778054985 | 20.56° C | 85% | 1044.8 hPa | 0 mm | 0.89 m/s, 179° | 0 W/m² | - |
| 1778054682 | 20.56° C | 85% | 1044.7 hPa | 0 mm | 1.79 m/s, 194° | 0 W/m² | - |
| 1778054379 | 20.56° C | 85% | 1044.8 hPa | 0 mm | 1.34 m/s, 186° | 0 W/m² | - |
| 1778054077 | 20.56° C | 85% | 1044.7 hPa | 0 mm | 1.34 m/s, 173° | 0 W/m² | - |
| 1778053773 | 20.56° C | 84% | 1044.6 hPa | 0 mm | 1.34 m/s, 186° | 0 W/m² | - |
| 1778053471 | 20.56° C | 84% | 1044.9 hPa | 0 mm | 1.34 m/s, 191° | 0 W/m² | - |
| 1778053168 | 20.56° C | 84% | 1044.7 hPa | 0 mm | 1.79 m/s, 181° | 0 W/m² | - |
| 1778052866 | 20.56° C | 84% | 1044.7 hPa | 0 mm | 0.45 m/s, 185° | 0 W/m² | - |
| 1778052563 | 20.56° C | 84% | 1044.6 hPa | 0 mm | 1.34 m/s, 190° | 0 W/m² | - |
| 1778052260 | 20.56° C | 83% | 1044.6 hPa | 0 mm | 2.24 m/s, 174° | 0 W/m² | - |
| 1778051958 | 20.56° C | 83% | 1044.7 hPa | 0 mm | 1.79 m/s, 189° | 0 W/m² | - |
| 1778051656 | 20.56° C | 83% | 1044.6 hPa | 0 mm | 0.89 m/s, 193° | 0 W/m² | - |
| 1778051352 | 21.11° C | 83% | 1044.5 hPa | 0 mm | 0.89 m/s, 176° | 0 W/m² | - |
| 1778051049 | 21.11° C | 83% | 1044.5 hPa | 0 mm | 1.79 m/s, 193° | 0 W/m² | - |
| 1778050746 | 20.56° C | 83% | 1044.7 hPa | 0 mm | 1.34 m/s, 188° | 0 W/m² | - |
| 1778050444 | 20.56° C | 82% | 1044.9 hPa | 0 mm | 1.34 m/s, 211° | 0 W/m² | - |
| 1778050140 | 20.56° C | 82% | 1044.7 hPa | 0 mm | 1.34 m/s, 159° | 0 W/m² | - |
| 1778049836 | 21.11° C | 82% | 1044.7 hPa | 0 mm | 1.34 m/s, 195° | 0 W/m² | - |
| 1778049533 | 20.56° C | 82% | 1044.8 hPa | 0 mm | 1.79 m/s, 191° | 0 W/m² | - |
| 1778049231 | 20.56° C | 82% | 1044.3 hPa | 0 mm | 1.34 m/s, 160° | 0 W/m² | - |
| 1778048929 | 21.11° C | 82% | 1044.1 hPa | 0 mm | 1.34 m/s, 175° | 0 W/m² | - |
| 1778048626 | 21.11° C | 81% | 1043.9 hPa | 0 mm | 1.34 m/s, 172° | 0 W/m² | - |
| 1778048322 | 21.11° C | 81% | 1044.5 hPa | 0 mm | 1.34 m/s, 168° | 0 W/m² | - |
* Rain latest hour (hover to see other rain measurements)
** Current wind speed in m/s (hover to see current wind gust speed)